Date,TemperatureHighF,TemperatureAvgF,TemperatureLowF,DewpointHighF,DewpointAvgF,DewpointLowF,HumidityHigh,HumidityAvg,HumidityLow,PressureMaxIn,PressureMinIn,WindSpeedMaxMPH,WindSpeedAvgMPH,GustSpeedMaxMPH,PrecipitationSumIn
2013-3-1,89.1,64.1,44.3,42.0,35.1,26.0,81,43,11,30.22,30.06,5,1,0,0.00
2013-3-2,84.1,64.5,46.4,48.0,38.5,31.0,79,45,15,30.12,30.00,10,1,0,0.00
2013-3-3,70.0,58.5,52.0,56.0,51.7,47.0,91,79,45,30.03,29.91,10,1,0,0.00
2013-3-4,68.6,58.2,50.4,54.0,51.6,48.0,92,79,59,30.03,29.95,9,2,0,0.00
2013-3-5,65.1,56.3,49.0,54.0,50.7,47.0,93,82,66,30.06,29.97,7,1,0,0.00
2013-3-6,65.7,56.9,45.1,51.0,46.3,41.0,88,69,48,30.09,29.95,9,2,0,0.00
2013-3-7,61.8,56.3,53.5,53.0,50.7,47.0,92,82,70,29.95,29.79,11,2,0,0.02
2013-3-8,60.8,53.1,46.3,50.0,46.6,43.0,94,79,57,29.96,29.73,11,2,0,0.76
2013-3-9,65.0,54.9,44.8,49.0,46.0,41.0,91,74,46,30.15,29.94,10,1,0,0.00
2013-3-10,75.0,57.7,41.9,49.0,43.8,37.0,94,66,29,30.20,30.08,7,1,0,0.00
2013-3-11,74.4,58.0,42.0,53.0,46.5,40.0,93,69,35,30.11,29.97,8,1,0,0.00
2013-3-12,80.2,59.9,43.5,56.0,49.2,42.0,95,72,32,30.02,29.93,6,1,0,0.00
2013-3-13,81.7,61.0,46.3,58.0,50.9,44.0,95,73,35,30.04,29.94,9,1,0,0.01
2013-3-14,78.9,61.6,51.9,59.0,53.0,49.0,96,76,44,30.02,29.94,6,1,0,0.00
2013-3-15,66.5,58.3,53.5,57.0,53.9,52.0,94,86,67,29.99,29.88,6,2,0,0.00
2013-3-16,65.7,56.9,51.9,55.0,52.0,50.0,95,84,65,29.92,29.83,11,2,0,0.00
2013-3-17,67.8,59.0,53.7,55.0,52.5,50.0,89,79,62,29.94,29.87,7,2,0,0.00
2013-3-18,66.4,58.9,52.3,54.0,51.9,49.0,88,78,63,30.02,29.92,8,1,0,0.00
2013-3-19,67.5,57.1,48.7,56.0,51.8,47.0,94,83,66,30.05,29.98,8,1,0,0.00
2013-3-20,71.9,60.1,50.4,58.0,52.6,48.0,94,78,53,30.03,29.89,5,1,0,0.00
2013-3-21,70.5,60.6,52.3,58.0,53.3,50.0,94,78,54,29.89,29.74,11,2,0,0.00
2013-3-22,70.9,60.0,52.0,56.0,52.8,49.0,93,79,49,29.85,29.74,9,2,0,0.00
2013-3-23,69.2,60.6,53.1,56.0,53.3,50.0,91,78,60,29.94,29.84,10,2,0,0.00
2013-3-24,75.4,61.8,51.3,57.0,53.5,49.0,92,76,52,29.95,29.82,7,1,0,0.00
2013-3-25,73.4,59.6,51.6,57.0,53.8,49.0,95,83,50,29.91,29.82,9,1,0,0.00
2013-3-26,68.9,60.2,52.8,56.0,53.8,51.0,94,80,62,29.90,29.83,6,1,0,0.00
2013-3-27,67.8,59.9,53.3,55.0,52.9,50.0,90,78,62,29.98,29.86,11,2,0,0.00
2013-3-28,73.5,61.1,52.0,58.0,54.2,50.0,92,79,57,30.00,29.94,10,1,0,0.00
2013-3-29,72.9,60.8,53.3,59.0,55.2,51.0,93,82,60,30.05,29.97,5,1,0,0.00
2013-3-30,71.8,61.1,55.9,58.0,54.6,51.0,91,80,60,30.07,29.99,7,2,0,0.00
2013-3-31,69.7,61.3,55.3,59.0,55.7,52.0,91,82,67,30.07,29.99,10,2,0,0.00